N8DNY-13 Weather Reports


Display with metric or nautical units.
time (UTC)temp
F
wind
direction
speed
MPH
gust
MPH
rain 1hr
in
rain 24hr
in
rain mn
in
humidity
%
barometer
mb
20260901160351 82 270 0.0 1.0 0.00 0.00 0.00 77 1020.3
20260901154900 86 259 0.0 1.0 0.00 0.00 0.00 75 1020.3
20260901153331 84 308 1.0 2.0 0.00 0.00 0.00 73 1019.9
20260901151821 82 276 0.0 0.0 0.00 0.00 0.00 77 1019.7
20260901150311 82 282 0.0 0.0 0.00 0.00 0.00 77 1019.9
20260901144801 86 280 0.0 1.0 0.00 0.00 0.00 70 1020.0
20260901143250 84 283 0.0 0.0 0.00 0.00 0.00 74 1020.1
20260901141740 82 277 0.0 1.0 0.00 0.00 0.00 77 1020.3
20260901140240 80 274 1.0 1.0 0.00 0.00 0.00 80 1020.7
20260901134731 80 274 0.0 0.0 0.00 0.00 0.00 81 1020.1
20260901130200 81 273 0.0 0.0 0.00 0.00 0.00 79 1019.8
20260901123141 77 280 0.0 0.0 0.00 0.00 0.00 88 1019.7
20260901121650 75 274 0.0 0.0 0.00 0.00 0.00 90 1019.7
20260901120120 75 270 0.0 0.0 0.00 0.00 0.00 91 1019.8
20260901114610 74 272 0.0 0.0 0.00 0.00 0.00 92 1019.7
20260901113120 74 278 0.0 0.0 0.00 0.00 0.00 93 1019.6
20260901111550 74 275 0.0 0.0 0.00 0.00 0.00 93 1019.4
20260901110041 74 274 0.0 0.0 0.00 0.00 0.00 93 1019.3
20260901104531 74 279 0.0 0.0 0.00 0.00 0.00 92 1019.4
20260901103020 74 275 0.0 0.0 0.00 0.00 0.00 92 1019.5
20260901101510 74 282 0.0 0.0 0.00 0.00 0.00 92 1019.4
20260901100002 74 274 0.0 0.0 0.00 0.00 0.00 92 1019.2
20260901094500 74 274 0.0 0.0 0.00 0.00 0.00 92 1019.5
20260901092950 74 274 0.0 0.0 0.00 0.00 0.00 92 1019.1
20260901091440 74 275 0.0 0.0 0.00 0.00 0.00 92 1019.0
20260901085951 74 257 0.0 2.0 0.00 0.00 0.00 93 1018.9
20260901084420 74 273 0.0 0.0 0.00 0.00 0.00 92 1018.8
20260901082910 74 268 0.0 0.0 0.00 0.00 0.00 93 1019.1
20260901081401 74 267 0.0 0.0 0.00 0.00 0.00 92 1019.0
20260901075850 74 267 0.0 0.0 0.00 0.00 0.00 92 1018.7
20260901074340 74 264 0.0 0.0 0.00 0.00 0.00 92 1018.9
20260901072854 75 267 0.0 0.0 0.00 0.00 0.00 91 1019.1
20260901071331 75 275 0.0 0.0 0.00 0.00 0.00 91 1018.8
20260901065821 75 268 0.0 0.0 0.00 0.00 0.00 92 1018.8
20260901064310 75 268 0.0 0.0 0.00 0.00 0.00 91 1018.9
20260901062801 75 267 0.0 0.0 0.00 0.00 0.00 91 1018.9
20260901061310 75 270 0.0 0.0 0.00 0.00 0.00 90 1019.1
20260901055740 76 269 0.0 1.0 0.00 0.00 0.00 90 1018.9
20260901054230 76 279 0.0 1.0 0.00 0.00 0.00 89 1019.1
20260901052721 76 276 0.0 0.0 0.00 0.00 0.00 90 1019.2
20260901051211 76 268 0.0 0.0 0.00 0.00 0.00 90 1019.4
20260901045705 76 277 0.0 0.0 0.00 0.00 0.00 91 1019.3
20260901044201 75 265 0.0 0.0 0.00 0.00 0.00 91 1019.1
20260901042650 75 264 0.0 0.0 0.00 0.00 0.00 91 1019.1
20260901041140 75 264 0.0 0.0 0.00 0.00 0.00 92 1019.2
20260901035630 75 265 0.0 1.0 0.00 0.06 0.06 91 1019.1
20260901034120 75 269 0.0 0.0 0.00 0.06 0.06 90 1019.3
20260901032611 75 270 0.0 0.0 0.00 0.06 0.06 89 1019.0
20260901031101 76 271 0.0 0.0 0.00 0.06 0.06 88 1019.3
20260901025611 76 256 0.0 1.0 0.00 0.06 0.06 87 1019.2
20260901024040 76 269 0.0 0.0 0.00 0.06 0.06 87 1019.6
20260901022531 76 271 0.0 1.0 0.00 0.06 0.06 87 1019.8
20260901021020 76 271 0.0 0.0 0.00 0.06 0.06 86 1019.5
20260901015511 76 169 1.0 3.0 0.00 0.06 0.06 85 1019.5
20260901014002 75 277 0.0 0.0 0.00 0.06 0.06 88 1019.5
20260901012502 76 271 0.0 0.0 0.00 0.06 0.06 87 1019.1
20260901011001 76 286 0.0 1.0 0.00 0.06 0.06 86 1018.7
20260901005500 75 271 1.0 2.0 0.00 0.06 0.06 87 1018.5
20260901003952 75 263 0.0 1.0 0.00 0.06 0.06 89 1018.6
20260901002450 75 276 0.0 0.0 0.00 0.06 0.06 89 1018.8
20260901000940 75 258 1.0 2.0 0.00 0.06 0.06 89 1019.4
20260831235431 75 270 0.0 0.0 0.00 0.06 0.06 87 1019.5
20260831233920 74 259 1.0 2.0 0.00 0.06 0.06 87 1019.5
20260831232410 74 261 1.0 2.0 0.07 0.06 0.06 89 1020.0
20260831230900 75 271 0.0 0.0 0.05 0.05 0.05 91 1021.1
20260831225350 75 269 0.0 0.0 0.00 0.04 0.04 85 1021.1
20260831223841 76 272 0.0 0.0 0.00 0.04 0.04 88 1021.2
20260831222331 77 282 0.0 0.0 0.00 0.04 0.04 90 1021.5
20260831220823 77 282 0.0 0.0 0.00 0.04 0.04 91 1021.4
20260831215320 76 282 0.0 0.0 0.00 0.04 0.04 88 1021.6
20260831213810 77 282 0.0 0.0 0.00 0.04 0.04 86 1021.7
20260831212300 82 286 0.0 0.0 0.07 0.01 0.01 72 1021.3
20260831210750 84 264 0.0 2.0 0.00 0.00 0.00 59 1020.7
20260831205241 86 275 0.0 0.0 0.00 0.00 0.00 61 1020.3
20260831203753 86 247 2.0 3.0 0.00 0.00 0.00 63 1020.4
20260831202221 85 281 0.0 0.0 0.00 0.00 0.00 66 1020.2
20260831200711 86 253 0.0 1.0 0.00 0.00 0.00 66 1020.4
20260831195200 86 262 0.0 1.0 0.00 0.00 0.00 64 1020.6
20260831193652 84 275 0.0 0.0 0.00 0.00 0.00 69 1020.5
20260831192151 84 273 0.0 1.0 0.00 0.00 0.00 68 1020.7
20260831190700 86 276 0.0 0.0 0.00 0.00 0.00 69 1021.1
20260831185131 85 284 0.0 1.0 0.00 0.00 0.00 68 1021.0
20260831183620 83 274 0.0 0.0 0.00 0.00 0.00 71 1020.8
20260831182110 85 275 0.0 0.0 0.00 0.00 0.00 68 1020.6
20260831180600 85 281 0.0 0.0 0.00 0.00 0.00 67 1021.2
20260831175050 86 281 0.0 1.0 0.00 0.00 0.00 68 1021.5
20260831173600 84 276 0.0 0.0 0.00 0.00 0.00 72 1021.8
20260831172031 82 277 0.0 0.0 0.00 0.00 0.00 72 1022.0
20260831170522 82 280 0.0 0.0 0.00 0.00 0.00 73 1022.1
20260831165040 83 271 0.0 0.0 0.00 0.00 0.00 71 1022.1
20260831163511 82 284 0.0 0.0 0.00 0.00 0.00 73 1022.3
20260831162022 84 279 0.0 0.0 0.00 0.00 0.00 68 1022.3